Theta_e
327 333 336 334 337 340 345 347 344 344 342 342 341 341 339 339 340 345 332 327 330 333 334 330 325 324 323 323 324 324 325 327 329 331 332 333 333 334 333 333 333 332 330 328 326 326 326 326 326
330 333 334 332 338 340 344 343 346 343 344 343 341 342 344 345 344 332 326 325 327 328 327 325 323 323 323 324 325 326 328 330 331 332 333 333 332 332 331 332 333 331 331 330 330 329 328 327 326
328 332 333 335 335 339 343 344 346 344 343 342 341 342 343 344 341 335 337 325 324 324 325 324 323 323 324 325 326 328 330 331 332 332 331 331 331 330 334 337 338 335 333 334 334 333 332 331 329
326 330 330 336 337 335 342 344 344 343 344 343 342 342 344 343 342 341 341 329 324 324 324 324 324 324 325 326 327 329 331 332 331 331 334 335 336 334 334 332 335 337 337 336 336 334 333 334 331
326 327 330 336 336 336 340 344 343 344 344 345 343 342 343 344 340 337 336 331 326 324 324 324 325 325 326 327 328 331 332 332 334 333 332 332 330 332 331 326 327 329 329 332 334 333 331 332 334
327 325 331 334 335 335 343 344 344 344 344 344 342 342 343 343 342 342 342 339 334 330 325 325 325 326 327 328 332 332 332 334 330 325 324 324 323 320 320 319 318 317 322 325 325 326 328 326 327
327 328 330 331 334 336 344 344 344 343 344 343 341 342 344 343 337 333 338 337 339 334 329 327 328 328 329 332 332 332 334 327 323 320 321 322 322 320 320 318 318 318 317 317 320 325 327 327 327
325 328 332 334 335 336 339 344 342 342 343 341 341 339 344 344 341 334 331 331 332 331 332 331 332 331 331 331 332 334 332 326 325 323 323 322 323 324 324 324 323 322 321 317 318 318 319 321 320
325 328 329 332 335 335 336 345 339 340 341 340 340 342 342 341 341 337 334 334 333 334 334 332 331 332 332 332 335 336 332 331 327 326 325 325 325 325 325 325 325 325 324 321 320 320 318 317 318
325 327 327 328 334 336 336 343 341 339 339 339 341 340 340 341 341 339 337 338 338 338 338 335 334 334 334 337 337 335 333 333 328 327 326 326 325 325 325 325 325 325 324 324 322 322 321 320 321
321 324 323 324 329 334 338 342 340 338 341 337 338 341 340 340 343 343 340 339 340 340 340 340 338 337 339 339 340 338 333 331 328 327 326 326 325 325 325 325 326 326 325 324 323 323 323 322 322
323 322 322 324 327 333 338 340 339 338 337 335 339 339 342 334 343 344 344 342 340 341 342 342 341 340 339 338 337 335 338 330 327 327 326 325 325 325 324 325 326 326 326 325 324 323 323 323 322
322 322 321 324 330 329 337 339 340 339 337 338 340 340 342 341 343 341 343 344 344 343 343 343 343 340 339 340 339 331 334 327 327 326 325 325 323 324 326 327 327 326 325 325 325 324 323 323 322
321 321 321 324 329 329 337 336 339 340 339 340 341 339 342 342 335 339 343 344 343 342 342 341 341 341 338 333 329 329 327 327 326 323 321 323 324 327 329 326 319 316 318 321 324 324 324 323 321
320 324 322 322 327 329 333 336 339 338 340 341 340 340 341 342 337 340 341 339 338 341 341 340 338 337 332 328 327 327 327 324 322 330 330 327 329 327 315 312 310 309 311 313 317 320 323 323 323
324 324 326 324 327 327 331 334 335 334 341 342 342 341 341 341 341 342 340 335 336 339 341 339 336 332 329 328 328 325 323 323 330 331 330 330 321 315 313 311 308 310 312 313 313 314 319 321 322
326 327 327 325 323 328 329 330 326 330 340 342 342 342 341 341 342 342 338 333 332 335 338 339 335 328 328 327 326 324 325 329 331 331 327 319 315 315 313 309 310 312 314 314 314 313 315 317 318
328 327 326 326 324 324 325 326 327 333 340 342 342 341 341 341 340 340 337 333 333 332 333 337 330 326 326 324 326 327 327 331 332 329 319 316 315 314 311 311 313 314 314 313 312 311 314 316 316
326 327 327 326 324 328 329 331 331 333 338 340 341 341 341 341 340 339 336 334 333 332 331 332 330 329 328 329 329 328 332 332 330 320 317 316 315 313 311 313 314 313 313 312 312 311 314 315 318
326 327 327 326 324 329 330 331 333 333 337 338 339 339 340 340 340 340 339 335 333 332 331 332 332 332 331 331 330 330 332 330 321 318 317 315 314 312 312 313 314 312 312 312 312 311 313 314 315
327 329 328 328 326 324 328 332 330 329 335 337 337 337 338 339 339 339 340 338 335 333 332 332 332 331 331 331 330 331 330 322 319 318 316 315 314 312 313 314 313 312 311 312 311 312 312 314 315
329 326 326 326 327 328 323 329 331 328 334 335 336 337 337 334 333 333 336 338 337 334 332 331 331 331 332 332 331 331 325 320 319 317 315 314 312 313 314 314 312 312 311 310 309 309 309 310 312
328 325 325 325 326 326 326 329 331 329 334 334 335 335 334 330 331 333 334 334 334 333 334 332 330 331 331 330 331 327 321 319 317 315 314 311 312 314 313 310 310 309 310 309 308 308 309 310 311
323 324 323 324 326 328 326 327 330 332 333 331 330 330 331 332 333 333 334 334 333 332 331 331 330 330 331 330 326 321 319 317 315 314 311 312 313 311 309 307 308 308 308 308 307 308 309 310 311
327 329 327 326 329 327 325 328 329 329 326 327 328 329 329 331 332 332 332 332 331 330 328 328 330 330 330 324 321 319 317 315 313 311 311 312 311 309 308 308 308 308 308 308 308 308 308 308 309
326 329 328 328 329 327 326 329 328 325 324 324 324 327 328 329 329 329 330 329 329 328 326 329 331 330 324 321 319 317 315 313 311 311 311 310 309 308 308 308 309 309 309 309 309 309 309 309 309
328 331 324 329 325 328 327 328 327 325 325 324 325 327 331 328 328 327 328 328 328 328 329 328 327 324 321 318 316 315 312 312 311 310 310 309 307 308 308 309 310 309 309 309 308 308 308 308 308
328 324 331 329 330 330 329 328 327 328 328 327 326 327 329 327 327 327 327 327 327 326 324 321 321 320 317 316 315 313 313 312 311 310 307 306 307 308 309 310 309 310 309 308 307 307 307 307 307
329 329 326 328 329 330 329 328 328 329 329 328 327 325 325 326 326 326 325 326 324 320 318 317 317 318 316 316 314 313 313 312 311 308 306 307 308 308 309 310 310 309 307 307 307 306 307 307 308
326 326 328 330 330 328 327 328 324 325 325 324 324 325 325 324 324 323 323 322 320 318 317 317 317 317 316 315 314 314 313 312 310 305 308 308 309 309 310 310 310 309 308 307 307 307 307 307 308
Wind_Speed
11 6 8 3 2 4 4 5 2 5 3 1 6 2 4 3 1 2 11 12 13 15 15 13 12 11 9 8 8 9 9 9 9 8 9 8 8 8 8 9 9 8 8 7 6 6 5 5 5
10 6 4 1 3 4 4 1 2 2 0 6 7 5 2 2 3 9 12 13 13 13 13 13 12 11 9 8 8 8 7 7 6 7 7 7 7 7 7 8 8 7 7 7 7 6 6 5 5
8 3 1 3 2 3 2 2 3 2 6 6 3 2 3 4 6 13 10 11 13 13 13 13 12 10 9 8 7 6 6 5 5 5 5 6 7 8 8 9 9 8 8 8 9 9 9 9 8
8 3 4 3 4 2 0 7 9 10 3 3 2 3 3 1 5 6 9 11 12 13 13 12 11 10 9 7 6 5 4 3 4 4 6 7 7 9 9 10 8 9 10 11 12 12 13 13 12
7 4 3 3 2 2 2 10 16 9 5 4 2 3 4 4 9 11 11 12 12 13 13 12 11 10 9 7 6 4 3 3 3 4 4 6 7 9 11 12 12 13 14 13 12 12 13 14 13
4 1 3 2 0 2 4 12 13 6 4 5 3 7 3 8 9 10 11 11 12 12 13 12 11 10 9 7 6 5 4 3 2 3 5 7 9 10 11 12 13 13 14 14 14 15 13 13 13
2 2 2 1 1 2 5 12 11 7 6 4 8 7 4 12 11 12 11 12 13 13 13 12 11 10 9 8 7 7 5 3 4 5 6 5 7 9 11 12 13 14 15 15 14 14 14 13 13
2 3 3 2 3 3 10 14 8 9 6 3 9 4 8 18 14 12 12 12 13 13 13 12 11 9 8 7 6 6 5 4 3 4 5 5 6 10 12 14 14 16 16 14 11 13 14 14 15
4 1 2 3 7 2 12 15 5 4 8 8 10 5 11 19 20 15 16 16 16 16 14 12 11 10 9 8 6 5 5 2 1 3 3 4 6 9 11 13 15 17 19 16 16 16 15 14 16
3 2 4 3 6 4 14 18 13 7 8 13 10 10 21 20 22 20 17 16 16 15 14 13 13 11 10 9 7 6 5 4 3 3 4 5 8 11 14 15 16 18 18 16 15 16 15 15 15
2 3 2 6 9 8 19 15 13 10 8 19 19 17 25 23 22 19 16 15 13 13 11 11 12 11 11 9 8 7 7 6 6 7 7 9 12 15 18 20 21 21 21 21 21 20 18 16 16
3 7 8 4 6 10 21 15 14 20 6 13 16 19 24 23 20 18 17 16 14 13 13 12 13 12 11 10 10 10 9 8 9 9 10 12 15 18 20 21 24 25 24 24 23 22 23 22 22
4 2 3 4 8 6 15 21 13 24 16 6 16 21 25 20 15 17 18 16 13 14 13 13 13 11 11 14 13 11 11 10 9 10 12 15 18 20 23 25 24 24 24 26 27 27 26 26 26
2 2 1 2 8 9 18 10 9 18 16 10 16 24 23 19 20 17 15 13 16 15 14 12 12 13 13 9 10 10 10 9 9 12 17 20 20 22 25 26 27 28 27 27 26 26 27 27 26
2 1 5 9 4 4 13 5 17 15 14 16 19 21 18 18 20 18 13 11 12 13 13 11 12 10 8 9 10 10 11 9 12 16 17 18 20 24 26 28 29 27 26 26 26 25 25 24 24
3 3 1 8 3 4 8 13 17 8 15 21 19 17 17 18 18 16 13 9 9 11 14 11 9 10 10 12 12 12 10 12 15 17 16 19 21 24 28 31 29 27 27 27 27 27 22 21 20
5 5 2 3 4 6 8 7 5 5 15 15 16 16 17 16 20 17 14 9 5 7 11 12 11 13 14 13 13 13 14 17 19 15 18 19 22 27 31 30 28 27 27 28 28 26 22 22 24
3 4 5 5 6 6 3 3 11 4 9 10 12 13 16 15 15 19 16 11 7 7 8 12 13 14 15 15 15 16 19 21 17 17 18 21 24 29 32 30 28 29 30 27 25 26 22 21 21
5 5 5 3 5 4 3 4 9 5 1 3 7 10 14 14 16 21 19 19 12 11 11 14 15 15 16 16 17 19 21 19 18 17 19 23 28 33 33 30 32 33 28 27 26 26 21 16 15
5 3 2 1 5 2 2 5 8 7 2 3 6 9 13 13 18 22 25 23 18 16 13 14 15 16 17 18 18 20 22 21 17 19 24 27 32 34 32 31 32 31 27 24 23 21 19 16 15
3 2 1 3 3 7 1 2 5 5 4 2 4 9 11 13 17 21 25 27 25 21 17 15 14 14 15 18 21 22 25 20 23 27 29 32 35 33 31 31 30 28 25 20 23 20 18 18 15
1 2 3 2 2 2 4 1 1 6 4 3 1 4 7 8 11 13 15 19 22 20 19 16 14 15 17 21 21 26 22 24 28 29 33 36 35 32 31 32 31 30 27 25 27 26 22 20 20
3 6 4 3 4 2 6 3 2 3 3 3 2 4 7 11 12 11 12 14 16 17 18 17 17 16 19 22 25 22 23 27 28 32 36 35 33 32 33 32 33 31 23 23 21 21 19 17 20
6 2 4 3 0 2 5 3 1 3 3 3 5 7 12 13 11 12 12 13 12 12 13 16 19 20 20 22 19 22 25 27 32 36 34 33 32 31 29 27 20 19 20 19 18 18 18 17 23
4 3 3 1 3 3 3 3 3 5 4 7 7 10 14 7 10 9 10 10 8 8 10 14 18 19 21 17 20 23 25 31 34 32 31 31 25 24 20 20 22 23 21 21 20 20 18 19 22
4 3 4 4 4 6 2 2 2 3 5 8 10 14 11 10 9 9 8 6 7 7 11 14 16 17 16 19 22 26 29 30 29 29 29 30 23 19 20 24 26 25 23 22 23 21 21 22 25
3 2 2 5 1 3 2 3 6 4 8 10 14 16 9 9 8 8 7 8 8 9 14 16 15 15 18 22 25 27 27 27 27 28 29 24 24 20 25 28 29 25 22 19 20 19 18 18 19
1 7 0 2 3 6 2 4 5 6 11 13 17 13 8 10 10 9 8 9 9 11 14 15 16 17 19 22 24 25 25 26 26 28 28 24 22 23 25 30 23 19 17 18 18 17 17 14 13
3 2 5 2 2 4 5 6 3 9 8 10 15 7 9 9 9 10 9 9 8 10 13 14 15 17 19 21 23 23 24 26 28 29 24 21 24 24 30 24 20 18 17 16 15 15 12 12 12
2 3 2 0 1 0 2 7 2 6 11 12 13 9 8 7 7 8 7 5 8 10 13 14 17 18 20 22 23 24 26 29 31 25 19 21 23 27 26 20 19 18 14 14 13 11 11 14 11
Wind_Direction
42 93 115 60 82 61 36 30 339 120 158 98 126 115 78 82 29 58 145 133 141 158 159 153 143 142 135 122 111 99 89 82 76 68 61 53 47 43 39 35 33 30 31 32 32 29 23 16 7
36 100 113 91 63 45 58 310 26 120 299 146 116 128 99 95 129 142 137 142 145 151 155 152 146 144 136 126 113 99 91 78 63 52 43 36 34 33 34 30 26 23 21 15 11 4 357 347 341
30 67 348 60 86 53 103 187 136 102 136 155 169 71 94 96 120 140 140 145 145 149 156 153 147 142 138 132 119 113 91 71 54 47 41 37 32 27 30 25 24 21 18 11 1 352 343 333 323
13 34 53 52 64 87 257 153 149 145 138 174 149 97 66 71 113 148 154 152 146 153 155 153 149 147 146 138 128 114 98 76 66 55 45 39 38 29 20 15 7 358 355 350 345 343 345 342 333
356 33 55 83 12 295 238 153 159 164 168 160 131 98 91 108 133 132 131 148 153 156 160 160 156 156 150 146 143 137 124 95 72 60 43 36 27 27 19 11 12 6 357 356 353 354 351 347 345
25 54 101 91 98 326 152 171 168 185 173 150 150 132 109 139 156 155 156 157 160 164 169 166 163 164 161 164 164 154 136 111 73 52 59 53 51 33 23 13 10 8 357 349 345 348 352 349 348
57 33 54 342 101 203 166 179 192 192 171 174 154 151 170 162 163 163 164 166 167 169 172 173 174 177 176 180 173 160 149 137 90 63 63 57 50 37 23 13 10 4 353 342 345 347 343 345 340
132 119 156 200 197 248 165 178 214 194 168 125 166 182 188 189 165 165 165 163 166 166 171 177 180 183 182 186 179 166 170 157 92 66 58 56 32 18 5 360 355 351 351 345 347 342 335 332 333
164 176 223 204 187 204 159 184 199 163 139 173 199 236 206 181 175 176 169 167 167 168 171 177 179 181 181 181 194 193 191 190 146 40 27 15 360 351 345 342 341 337 336 339 330 337 336 323 327
200 214 229 218 206 187 171 189 180 182 154 198 216 235 190 188 185 188 185 181 175 176 178 181 181 185 186 190 196 214 222 243 273 308 318 321 327 328 326 321 319 319 321 323 314 318 323 314 313
172 248 211 243 228 177 167 187 187 195 202 206 209 203 192 199 197 199 199 200 189 190 193 193 192 197 199 206 222 230 243 252 257 281 295 307 315 321 317 309 310 312 307 305 303 301 303 299 300
247 259 234 273 181 175 174 174 206 206 215 202 212 206 193 200 200 203 208 213 212 207 210 219 214 217 220 232 248 249 250 250 259 279 297 308 314 316 315 311 310 309 299 292 288 286 287 291 292
216 291 254 281 144 183 177 188 196 222 221 279 210 198 200 204 199 211 220 222 232 234 233 234 233 256 253 253 253 248 244 254 273 291 306 313 314 313 313 310 309 305 297 290 286 282 278 282 286
233 246 111 36 142 152 179 187 202 237 223 228 204 199 201 203 207 218 233 241 244 246 250 254 251 255 263 240 237 237 246 265 290 311 314 310 304 303 307 306 304 301 296 291 289 286 282 278 273
310 143 132 34 141 139 163 191 225 236 211 211 205 199 202 205 213 219 233 256 268 246 246 260 272 265 239 232 234 244 265 287 310 312 305 298 298 308 315 320 317 311 306 299 294 291 288 283 279
63 55 106 37 130 124 211 235 243 227 198 214 203 199 203 210 216 223 227 265 270 249 250 255 260 246 233 238 247 259 276 298 303 311 302 302 308 318 322 324 321 316 313 308 301 293 285 280 276
41 92 87 87 34 147 210 259 27 278 216 222 203 203 207 211 219 227 230 251 283 247 250 258 244 243 247 253 261 271 290 294 300 308 305 310 319 322 327 326 323 320 317 313 306 298 293 283 275
100 96 79 72 28 54 114 303 337 1 222 219 205 208 213 214 216 226 224 245 300 313 283 241 239 242 245 259 265 274 281 302 311 307 311 317 324 329 329 326 323 322 320 316 309 305 297 290 286
120 93 75 80 25 104 55 359 347 333 212 213 212 219 229 226 224 230 235 248 275 298 280 252 250 246 251 261 267 278 294 302 307 307 316 325 328 327 327 325 323 324 321 318 315 311 304 302 294
88 77 44 178 23 119 160 51 14 10 300 256 236 239 240 240 242 244 243 250 267 287 288 273 254 248 257 266 274 279 295 307 303 316 321 323 323 322 321 318 316 318 319 316 319 317 299 293 285
71 98 232 311 68 74 296 129 15 10 356 290 257 256 253 251 255 250 249 255 260 275 287 288 262 265 270 274 281 292 306 305 309 312 316 320 319 318 315 310 312 311 313 308 315 316 298 290 281
28 341 288 311 241 341 339 257 23 351 17 18 2 239 242 237 244 251 260 259 260 274 287 299 290 282 279 287 287 297 301 305 309 313 317 316 316 315 310 310 309 304 306 301 304 304 293 285 277
53 60 56 57 110 169 24 272 77 340 162 159 204 237 227 218 241 260 267 273 271 275 287 294 293 284 283 289 291 297 301 306 310 315 315 314 314 308 308 309 305 306 306 304 308 304 290 282 276
126 99 69 85 119 39 359 304 140 190 205 196 228 238 229 235 254 257 268 270 274 286 296 291 283 283 292 293 294 299 305 311 313 313 314 315 312 311 312 317 324 325 320 318 320 313 294 283 273
62 25 360 46 26 358 360 269 352 242 261 246 244 234 236 261 254 257 264 267 276 280 285 289 290 287 291 296 300 307 310 310 312 315 314 312 314 316 317 328 318 310 304 303 304 304 296 284 281
56 33 31 356 333 336 312 345 29 272 264 251 255 246 253 249 250 254 255 261 265 268 282 290 291 293 292 304 309 308 307 311 314 315 314 314 314 317 325 314 316 311 304 303 304 306 297 286 283
135 74 70 109 111 276 352 246 256 246 249 248 246 242 248 253 245 252 252 257 261 273 289 301 301 297 306 309 307 308 311 315 317 314 315 314 315 314 314 315 316 311 310 308 314 310 302 297 289
298 130 298 52 315 324 296 278 301 270 243 235 242 243 249 254 245 254 262 267 268 285 304 307 305 305 303 301 305 310 315 319 317 318 319 314 314 312 314 319 318 320 317 320 318 314 308 306 299
146 145 66 94 340 305 305 306 253 280 301 285 267 248 245 251 246 255 265 266 285 299 301 305 298 291 297 302 308 314 320 322 322 322 318 317 317 314 318 317 320 322 322 326 320 320 320 311 307
75 103 120 30 275 169 314 283 14 302 297 283 279 234 234 241 247 260 269 266 281 287 287 285 285 291 297 307 315 319 323 324 324 322 321 323 317 318 319 318 319 320 322 323 324 323 323 316 315